User: anonymous   Login
Location: Unspecified
(0.0000°N, 0.0000°E)
Time: 07:48:24
(UTC+00:00)
Language:

STARLINK-35088 - Orbit

View from above orbital plane
View from above orbital plane
View from above satellite
View from above satellite

Ground track
Ground track

The orbit is defined by the following mean orbital elements,

1 65344U          26145.43869447 +.00000000 +00000-0 +36937-3 0 00009
2 65344  53.1596 210.5169 0000860  72.5021 287.6073 15.30204678    07
Epoch (UTC): 25 May 2026 10:31:43
Eccentricity: 0.0000860
inclination: 53.1596°
perigee height: 475 km
apogee height: 476 km
right ascension of ascending node: 210.5169°
argument of perigee: 72.5021°
revolutions per day: 15.30204678
mean anomaly at epoch: 287.6073°

The dashed part of the orbit path shows where the satellite is in the earth's shadow,  

DLR